Weather History for Lee's Summit, MO

Change the Weather History Date:

Tuesday, September 3, 2013

  Actual Average (KMKC) Record (KMKC)
Temperature  
Mean Temperature 72 °F -  
Max Temperature 84 °F 85 °F 97 °F (1998)
Min Temperature 60 °F 65 °F 57 °F (2008)
Cooling Degree Days 7    
Growing Degree Days 22 (Base 50)    
Moisture  
Dew Point 56 °F    
Average Humidity 59    
Maximum Humidity 80    
Minimum Humidity 34    
Precipitation  
Precipitation 0.00 in - - ()
Sea Level Pressure  
Sea Level Pressure 30.06 in    
Wind  
Wind Speed 3 mph (East)    
Max Wind Speed 6 mph    
Max Gust Speed -    
Visibility 10 miles    
Events      
Averages and records for this station are not official NWS values.
T = Trace of Precipitation, MM = Missing Value Source: NWS Daily Summary

Daily Weather History Graph

Daily Weather History Graph

Search for Another Location

Airport:

Trip Planner

Search our weather history database for the weather conditions in past years. The results will help you decide how hot, cold, wet, or windy it might be!

Date:

Astronomy

Sep. 03, 2013 Rise Set
Actual Time 6:48 AM CDT 7:44 PM CDT
Civil Twilight 6:21 AM CDT 8:11 PM CDT
Nautical Twilight 5:48 AM CDT 8:43 PM CDT
Astronomical Twilight 5:15 AM CDT 9:17 PM CDT
Moon 5:03 AM CDT (9/3) 6:31 PM CDT (9/3)
Length of Visible Light 13h 50m
Length of Day
12h 55m
Waning Crescent, 3% of the Moon is Illuminated
Sep 3
Waning Crescent
Sep 5
New
Sep 12
First Quarter
Sep 19
Full
Sep 26
Last Quarter

Hourly Weather History & Observations

Time (CDT) Temp. Heat Index Dew Point Humidity Pressure Visibility Wind Dir Wind Speed Gust Speed Precip Events Conditions
12:53 AM 66.0 °F - 57.0 °F 73% 30.02 in 10.0 mi Calm Calm - N/A   Clear
1:53 AM 64.0 °F - 57.0 °F 78% 30.03 in 10.0 mi Calm Calm - N/A   Clear
2:53 AM 63.0 °F - 55.9 °F 78% 30.03 in 10.0 mi North 3.5 mph - N/A   Clear
3:53 AM 62.1 °F - 55.9 °F 80% 30.04 in 10.0 mi NNE 4.6 mph - N/A   Clear
4:53 AM 63.0 °F - 55.0 °F 75% 30.04 in 10.0 mi ENE 4.6 mph - N/A   Clear
5:53 AM 60.1 °F - 53.1 °F 78% 30.06 in 10.0 mi East 4.6 mph - N/A   Clear
6:53 AM 60.1 °F - 54.0 °F 80% 30.06 in 10.0 mi East 3.5 mph - N/A   Clear
7:53 AM 63.0 °F - 55.9 °F 78% 30.09 in 10.0 mi ENE 5.8 mph - N/A   Clear
8:53 AM 66.0 °F - 55.9 °F 70% 30.09 in 10.0 mi East 4.6 mph - N/A   Clear
9:53 AM 71.1 °F - 57.0 °F 61% 30.11 in 10.0 mi East 3.5 mph - N/A   Clear
10:53 AM 75.0 °F - 57.0 °F 53% 30.12 in 10.0 mi Variable 5.8 mph - N/A   Clear
11:53 AM 79.0 °F - 55.0 °F 44% 30.11 in 10.0 mi East 5.8 mph - N/A   Clear
12:53 PM 81.0 °F 80.4 °F 53.1 °F 38% 30.09 in 10.0 mi Calm Calm - N/A   Clear
1:53 PM 81.0 °F 80.4 °F 53.1 °F 38% 30.07 in 10.0 mi Calm Calm - N/A   Clear
2:53 PM 84.0 °F 82.5 °F 53.1 °F 34% 30.05 in 10.0 mi Variable 3.5 mph - N/A   Clear
3:53 PM 82.9 °F 82.0 °F 55.0 °F 38% 30.03 in 10.0 mi SE 4.6 mph - N/A   Clear
4:53 PM 84.0 °F 82.5 °F 53.1 °F 34% 30.03 in 10.0 mi Calm Calm - N/A   Clear
5:53 PM 82.9 °F 82.0 °F 55.0 °F 38% 30.03 in 10.0 mi ENE 5.8 mph - N/A   Clear
6:53 PM 80.1 °F 80.6 °F 57.9 °F 47% 30.03 in 10.0 mi ENE 5.8 mph - N/A   Clear
7:53 PM 75.0 °F - 57.9 °F 55% 30.04 in 10.0 mi East 4.6 mph - N/A   Clear
8:53 PM 73.0 °F - 57.9 °F 59% 30.04 in 10.0 mi ESE 4.6 mph - N/A   Clear
9:53 PM 72.0 °F - 57.0 °F 59% 30.05 in 10.0 mi ESE 3.5 mph - N/A   Clear
10:53 PM 66.9 °F - 55.9 °F 68% 30.06 in 10.0 mi SSE 3.5 mph - N/A   Clear
11:53 PM 71.1 °F - 55.9 °F 59% 30.05 in 10.0 mi SSE 5.8 mph - N/A   Clear